Location: MAS Eagle Lake Observatory
(44.8103°N, 93.9397°W)
Time: 15:11:27
(UTC-05:00)

N. Korean satellite - Visible Passes

Search period start: 19 October 2017 00:00
Search period end: 29 October 2017 00:00
Orbit: 459 x 517 km, 97.2° (Epoch: 18 October)

Date Brightness Start Highest point End Pass type
(mag) Time Alt. Az. Time Alt. Az. Time Alt. Az.
19 Oct 7.7 19:36:50 10° S 19:40:14 46° W 19:43:37 10° NNW visible
20 Oct 10.3 07:03:50 10° ENE 07:05:09 12° E 07:06:28 10° ESE visible
20 Oct 6.4 19:13:21 10° SSE 19:16:52 85° E 19:20:22 10° N visible
21 Oct 6.9 18:50:16 10° SE 18:53:35 41° ENE 18:56:53 10° N visible
21 Oct 10.0 20:25:46 10° WSW 20:27:19 12° W 20:28:53 10° WNW visible
22 Oct 9.1 20:00:58 10° SSW 20:03:49 23° W 20:06:39 10° NW visible
23 Oct 7.7 19:37:01 10° S 19:40:22 45° W 19:43:44 10° NNW visible
24 Oct 10.2 07:03:52 10° ENE 07:05:18 12° E 07:06:45 10° ESE visible
24 Oct 6.4 19:13:31 10° SSE 19:17:00 87° ENE 19:20:29 10° NNW visible
25 Oct 6.8 18:50:25 10° SE 18:53:42 41° ENE 18:56:59 10° N visible
25 Oct 10.0 20:25:59 10° WSW 20:27:27 12° W 20:28:55 10° WNW visible
26 Oct 9.1 20:01:07 10° SSW 20:03:55 23° W 20:06:43 10° NW visible
27 Oct 7.7 19:37:08 10° S 19:40:27 44° W 19:43:48 10° NNW visible
28 Oct 10.2 07:03:50 10° ENE 07:05:24 12° E 07:06:59 10° ESE visible
28 Oct 6.4 19:13:37 10° SSE 19:17:04 88° ENE 19:20:33 10° NNW visible
